QPF
0.00 0.00 0.00 0.00 0.00 0.00 0.00 0.00 0.00 0.00 0.00 0.00 0.00 0.00 0.00 0.00 0.00 0.00 0.00 0.00 0.00 0.00 0.00 0.00 0.00 0.00 0.00 0.00 0.00 0.00 0.00 0.00 0.00 0.00 0.00 0.00 0.00 0.01
0.00 0.00 0.00 0.00 0.00 0.00 0.00 0.00 0.00 0.00 0.00 0.00 0.00 0.00 0.00 0.00 0.00 0.00 0.00 0.00 0.00 0.00 0.00 0.00 0.00 0.00 0.00 0.00 0.00 0.00 0.00 0.00 0.00 0.00 0.00 0.00 0.00 0.00
0.00 0.00 0.00 0.00 0.00 0.00 0.00 0.00 0.00 0.00 0.00 0.00 0.00 0.00 0.00 0.00 0.00 0.00 0.00 0.00 0.00 0.00 0.00 0.00 0.00 0.00 0.00 0.00 0.00 0.00 0.00 0.00 0.00 0.00 0.00 0.00 0.00 0.00
0.00 0.00 0.00 0.00 0.00 0.00 0.00 0.00 0.00 0.00 0.00 0.00 0.00 0.00 0.00 0.00 0.00 0.00 0.00 0.00 0.00 0.00 0.00 0.00 0.00 0.00 0.00 0.00 0.00 0.00 0.00 0.00 0.00 0.00 0.00 0.00 0.00 0.00
0.00 0.00 0.00 0.00 0.00 0.00 0.00 0.00 0.00 0.00 0.00 0.00 0.00 0.00 0.00 0.00 0.00 0.00 0.00 0.00 0.00 0.00 0.00 0.00 0.00 0.00 0.00 0.00 0.00 0.00 0.00 0.00 0.00 0.00 0.00 0.00 0.00 0.00
0.00 0.00 0.00 0.00 0.00 0.00 0.00 0.00 0.00 0.00 0.00 0.00 0.00 0.00 0.00 0.00 0.00 0.00 0.00 0.00 0.00 0.00 0.00 0.00 0.00 0.00 0.00 0.00 0.00 0.00 0.00 0.00 0.00 0.00 0.00 0.00 0.00 0.00
0.00 0.00 0.00 0.00 0.00 0.00 0.00 0.00 0.00 0.00 0.00 0.00 0.00 0.00 0.00 0.00 0.00 0.00 0.00 0.00 0.00 0.00 0.00 0.00 0.00 0.00 0.00 0.00 0.00 0.00 0.00 0.00 0.00 0.00 0.00 0.00 0.00 0.00
0.00 0.00 0.00 0.00 0.00 0.00 0.00 0.00 0.00 0.00 0.00 0.00 0.00 0.00 0.00 0.00 0.00 0.00 0.00 0.00 0.00 0.00 0.00 0.00 0.00 0.00 0.00 0.00 0.00 0.00 0.00 0.00 0.00 0.00 0.00 0.00 0.00 0.00
0.00 0.00 0.00 0.00 0.00 0.00 0.00 0.00 0.00 0.00 0.00 0.00 0.00 0.00 0.00 0.00 0.00 0.00 0.00 0.00 0.00 0.00 0.00 0.00 0.00 0.00 0.00 0.00 0.00 0.00 0.00 0.00 0.00 0.00 0.00 0.00 0.00 0.00
0.00 0.00 0.00 0.00 0.00 0.00 0.00 0.00 0.00 0.00 0.00 0.00 0.00 0.00 0.00 0.00 0.00 0.00 0.00 0.00 0.00 0.00 0.00 0.00 0.00 0.00 0.00 0.00 0.00 0.00 0.00 0.00 0.00 0.00 0.00 0.00 0.00 0.00
0.00 0.00 0.00 0.00 0.00 0.00 0.00 0.00 0.00 0.00 0.00 0.00 0.00 0.00 0.00 0.00 0.00 0.00 0.00 0.00 0.00 0.00 0.00 0.00 0.00 0.00 0.00 0.00 0.00 0.00 0.00 0.00 0.00 0.00 0.00 0.00 0.00 0.00
0.00 0.00 0.00 0.00 0.00 0.00 0.00 0.00 0.00 0.00 0.00 0.00 0.00 0.00 0.00 0.00 0.00 0.00 0.00 0.00 0.00 0.00 0.00 0.00 0.00 0.00 0.00 0.00 0.00 0.00 0.00 0.00 0.00 0.00 0.00 0.00 0.00 0.00
0.00 0.00 0.00 0.00 0.00 0.00 0.00 0.00 0.00 0.00 0.00 0.00 0.00 0.00 0.00 0.00 0.00 0.00 0.00 0.00 0.00 0.00 0.00 0.00 0.00 0.00 0.00 0.00 0.00 0.00 0.00 0.00 0.00 0.00 0.00 0.00 0.00 0.00
0.00 0.00 0.00 0.00 0.00 0.00 0.00 0.00 0.00 0.00 0.00 0.00 0.00 0.00 0.00 0.00 0.00 0.00 0.00 0.00 0.00 0.00 0.00 0.00 0.00 0.00 0.00 0.00 0.00 0.00 0.00 0.00 0.00 0.00 0.00 0.00 0.00 0.00
0.00 0.00 0.00 0.00 0.00 0.00 0.00 0.00 0.00 0.00 0.00 0.00 0.00 0.00 0.00 0.00 0.00 0.00 0.00 0.00 0.00 0.00 0.00 0.00 0.00 0.00 0.00 0.00 0.00 0.00 0.00 0.00 0.00 0.00 0.00 0.00 0.00 0.00
0.00 0.00 0.00 0.00 0.00 0.00 0.00 0.00 0.00 0.00 0.00 0.00 0.00 0.00 0.00 0.00 0.00 0.00 0.00 0.00 0.00 0.00 0.00 0.00 0.00 0.00 0.00 0.00 0.00 0.00 0.00 0.00 0.00 0.00 0.00 0.00 0.00 0.00
0.00 0.00 0.00 0.00 0.00 0.00 0.00 0.00 0.00 0.00 0.00 0.00 0.00 0.01 0.01 0.00 0.00 0.01 0.02 0.02 0.01 0.00 0.00 0.00 0.00 0.00 0.00 0.00 0.00 0.00 0.00 0.00 0.00 0.00 0.00 0.00 0.00 0.00
0.00 0.00 0.00 0.00 0.00 0.00 0.00 0.00 0.00 0.00 0.00 0.00 0.00 0.00 0.00 0.00 0.01 0.02 0.02 0.02 0.01 0.00 0.01 0.00 0.02 0.02 0.01 0.00 0.00 0.00 0.00 0.00 0.00 0.00 0.00 0.00 0.00 0.00
0.00 0.00 0.00 0.00 0.00 0.00 0.00 0.00 0.00 0.00 0.00 0.00 0.00 0.00 0.00 0.01 0.03 0.01 0.01 0.02 0.01 0.01 0.01 0.01 0.01 0.02 0.01 0.00 0.00 0.00 0.00 0.00 0.00 0.00 0.00 0.00 0.00 0.00
0.00 0.00 0.00 0.00 0.00 0.00 0.00 0.00 0.00 0.00 0.01 0.00 0.00 0.00 0.00 0.01 0.01 0.01 0.01 0.01 0.01 0.01 0.01 0.01 0.00 0.01 0.02 0.01 0.00 0.00 0.00 0.00 0.00 0.00 0.00 0.00 0.00 0.00
0.00 0.00 0.00 0.00 0.00 0.00 0.00 0.00 0.00 0.00 0.01 0.00 0.00 0.00 0.00 0.01 0.00 0.00 0.01 0.02 0.02 0.01 0.01 0.00 0.00 0.01 0.03 0.02 0.01 0.00 0.00 0.00 0.00 0.00 0.00 0.00 0.00 0.00
0.00 0.00 0.00 0.00 0.00 0.00 0.00 0.00 0.00 0.00 0.00 0.00 0.00 0.00 0.01 0.01 0.01 0.01 0.01 0.01 0.02 0.01 0.00 0.00 0.00 0.03 0.01 0.01 0.00 0.00 0.00 0.00 0.00 0.00 0.00 0.00 0.00 0.00
0.00 0.00 0.01 0.01 0.00 0.00 0.00 0.00 0.00 0.00 0.00 0.00 0.00 0.00 0.01 0.01 0.01 0.02 0.01 0.01 0.02 0.01 0.01 0.02 0.02 0.01 0.01 0.01 0.01 0.00 0.00 0.00 0.00 0.00 0.00 0.00 0.00 0.00
MSLP
1016.36 1016.29 1016.26 1016.20 1016.27 1016.45 1016.46 1016.51 1016.60 1016.26 1015.89 1015.07 1014.79 1014.47 1014.48 1014.40 1014.42 1014.47 1014.46 1014.40 1014.37 1014.28 1014.08 1013.90 1013.65 1013.33 1012.95 1012.61 1012.18 1011.63 1011.08 1010.61 1010.15 1009.80 1009.57 1009.36 1009.27 1009.28
1015.92 1015.97 1015.83 1015.74 1015.74 1015.77 1015.94 1016.06 1016.20 1016.26 1016.02 1015.35 1015.02 1014.84 1014.68 1014.39 1014.29 1014.33 1014.22 1014.11 1014.16 1014.24 1014.09 1013.89 1013.67 1013.42 1013.17 1012.94 1012.66 1012.28 1011.76 1011.26 1010.79 1010.53 1010.47 1010.30 1010.22 1010.14
1015.21 1015.32 1015.33 1015.26 1015.35 1015.37 1015.28 1015.42 1015.66 1015.81 1015.63 1015.12 1014.93 1014.75 1014.65 1014.36 1014.24 1014.20 1013.96 1014.12 1014.08 1014.15 1014.10 1013.94 1013.71 1013.50 1013.27 1013.10 1012.84 1012.54 1012.19 1011.89 1011.69 1011.56 1011.36 1011.24 1011.19 1010.97
1014.88 1014.82 1014.75 1014.72 1014.77 1014.78 1014.89 1015.03 1015.02 1015.21 1015.52 1015.20 1014.92 1014.75 1014.56 1014.24 1014.11 1014.12 1013.92 1013.72 1013.83 1013.81 1013.91 1013.93 1013.75 1013.52 1013.37 1013.24 1013.12 1012.89 1012.58 1012.43 1012.31 1012.18 1012.06 1012.01 1011.96 1011.88
1014.35 1014.26 1014.20 1014.26 1014.30 1014.37 1014.35 1014.50 1014.67 1014.63 1014.88 1015.03 1014.86 1014.66 1014.45 1014.15 1014.08 1013.96 1013.85 1013.79 1013.51 1013.47 1013.56 1013.64 1013.58 1013.47 1013.47 1013.45 1013.38 1013.22 1012.97 1012.82 1012.70 1012.68 1012.61 1012.53 1012.52 1012.50
1013.89 1013.76 1013.59 1013.57 1013.72 1013.86 1013.86 1013.88 1013.96 1014.11 1014.34 1014.50 1014.56 1014.51 1014.40 1014.14 1014.12 1014.19 1014.08 1013.71 1013.47 1013.22 1013.25 1013.37 1013.52 1013.50 1013.47 1013.50 1013.48 1013.46 1013.31 1013.14 1013.01 1012.99 1012.98 1012.98 1013.01 1012.97
1013.32 1013.07 1013.06 1012.99 1012.91 1012.96 1013.21 1013.40 1013.54 1013.60 1013.80 1014.14 1014.30 1014.29 1014.25 1014.24 1014.28 1013.91 1013.98 1013.86 1013.56 1013.22 1013.35 1013.35 1013.45 1013.53 1013.56 1013.37 1013.41 1013.37 1013.32 1013.28 1013.35 1013.42 1013.37 1013.33 1013.37 1013.36
1013.26 1012.60 1012.32 1012.38 1012.46 1012.53 1012.56 1012.61 1012.84 1013.03 1013.27 1013.64 1013.68 1013.77 1013.69 1013.80 1013.73 1013.78 1013.92 1014.10 1014.12 1013.29 1013.42 1013.28 1013.02 1013.14 1013.02 1013.08 1013.01 1013.08 1013.18 1013.17 1013.44 1013.68 1013.74 1013.68 1013.63 1013.51
1013.10 1012.56 1012.16 1011.95 1011.89 1011.98 1012.08 1012.22 1012.35 1012.47 1012.55 1012.78 1012.97 1013.01 1013.14 1013.12 1013.27 1013.40 1013.59 1013.90 1013.90 1013.34 1013.49 1013.34 1012.86 1013.03 1012.63 1012.48 1012.51 1012.74 1012.86 1012.97 1013.27 1013.54 1013.60 1013.54 1013.52 1013.49
1012.90 1012.23 1011.83 1011.57 1011.54 1011.61 1011.67 1011.92 1011.90 1011.88 1012.02 1012.14 1012.19 1012.00 1012.16 1012.32 1012.53 1012.68 1013.00 1013.37 1013.40 1013.15 1013.21 1013.55 1012.96 1012.87 1012.42 1012.34 1012.23 1012.44 1012.65 1012.79 1013.02 1013.33 1013.40 1013.42 1013.46 1013.41
1012.19 1012.16 1011.63 1011.19 1011.25 1011.34 1011.36 1011.48 1011.53 1011.53 1011.26 1011.18 1011.26 1011.24 1011.42 1011.59 1011.93 1012.47 1013.03 1013.48 1013.54 1013.18 1012.95 1013.14 1012.90 1012.89 1012.65 1012.42 1012.28 1012.10 1012.32 1012.51 1012.95 1013.13 1013.25 1013.24 1013.23 1013.23
1012.26 1011.80 1011.81 1011.06 1010.82 1011.20 1011.38 1011.47 1011.32 1010.96 1010.96 1010.75 1010.77 1010.89 1010.96 1011.24 1011.31 1011.64 1012.37 1013.12 1013.34 1013.15 1012.41 1012.89 1012.87 1013.11 1013.17 1012.57 1012.38 1012.28 1012.32 1012.20 1012.51 1012.75 1012.79 1012.88 1013.05 1013.23
1012.26 1011.98 1011.72 1011.23 1011.00 1010.87 1011.07 1011.26 1011.13 1010.70 1010.51 1010.67 1010.78 1010.80 1010.85 1010.99 1011.11 1011.29 1011.64 1012.16 1012.57 1012.48 1011.99 1012.27 1012.94 1013.30 1013.49 1013.32 1012.80 1012.53 1012.47 1012.46 1012.53 1012.55 1012.45 1012.45 1012.66 1012.73
1012.10 1011.83 1011.78 1011.61 1010.90 1010.71 1010.58 1010.68 1010.57 1010.34 1010.40 1010.54 1010.57 1010.54 1010.65 1010.76 1010.68 1010.89 1010.88 1011.27 1011.42 1011.58 1011.65 1012.08 1012.81 1013.08 1013.68 1013.71 1013.15 1012.56 1012.45 1012.51 1012.54 1012.61 1012.54 1012.40 1012.37 1012.35
1011.94 1011.33 1011.49 1011.44 1010.74 1010.15 1010.22 1010.22 1010.32 1010.32 1010.25 1010.35 1010.39 1010.24 1010.04 1009.98 1009.80 1010.34 1010.67 1010.97 1011.38 1011.30 1011.42 1011.86 1012.22 1012.62 1013.09 1013.38 1013.13 1012.68 1012.70 1012.49 1012.42 1012.35 1012.34 1012.46 1012.44 1012.41
1011.81 1010.98 1010.96 1011.08 1010.60 1009.94 1009.62 1009.74 1009.87 1010.01 1010.00 1009.88 1009.84 1009.74 1009.56 1009.75 1009.84 1009.93 1010.42 1011.00 1011.41 1011.59 1011.50 1011.66 1011.87 1012.05 1012.47 1012.60 1012.65 1012.72 1012.55 1012.58 1012.04 1012.02 1012.08 1012.12 1012.00 1011.90
1010.97 1010.97 1010.37 1010.55 1010.40 1010.00 1009.61 1009.60 1009.84 1009.90 1009.90 1009.78 1009.63 1009.40 1009.32 1009.43 1009.61 1009.62 1009.93 1010.48 1010.94 1011.30 1011.24 1011.41 1011.56 1011.63 1011.83 1012.15 1012.42 1012.05 1011.92 1011.93 1011.61 1011.74 1011.98 1011.92 1011.54 1011.29
1010.12 1010.00 1010.12 1009.60 1009.60 1009.56 1009.58 1009.42 1009.40 1009.45 1009.45 1009.42 1009.31 1009.13 1009.02 1009.06 1009.20 1009.28 1009.44 1009.83 1010.17 1010.43 1010.61 1010.84 1011.11 1011.50 1011.76 1011.40 1011.24 1011.14 1011.18 1011.29 1011.20 1011.33 1011.44 1011.61 1011.05 1010.54
1009.32 1009.09 1009.28 1008.99 1008.74 1008.82 1008.98 1009.03 1008.88 1008.82 1008.76 1008.90 1008.91 1008.81 1008.66 1008.57 1008.63 1008.68 1008.88 1009.14 1009.42 1009.66 1009.76 1009.95 1010.35 1010.80 1011.18 1010.97 1010.14 1010.22 1010.67 1010.74 1010.93 1011.05 1011.07 1011.12 1010.70 1009.88
1008.65 1008.42 1008.38 1008.20 1008.06 1008.04 1008.33 1008.47 1008.39 1008.35 1008.37 1008.39 1008.27 1008.18 1008.06 1007.97 1008.02 1007.98 1008.15 1008.41 1008.67 1008.94 1009.17 1009.35 1009.63 1009.83 1010.07 1010.16 1010.15 1009.88 1009.91 1010.41 1010.65 1010.67 1010.65 1010.44 1010.07 1009.37
1008.43 1008.14 1007.84 1007.62 1007.49 1007.48 1007.41 1007.62 1007.79 1007.82 1007.80 1007.78 1007.57 1007.43 1007.42 1007.39 1007.35 1007.40 1007.50 1007.67 1007.91 1008.36 1008.59 1008.67 1008.49 1008.94 1009.47 1009.86 1010.13 1010.04 1009.91 1009.83 1010.03 1010.28 1010.35 1010.33 1009.96 1009.30
1007.86 1007.74 1007.44 1007.22 1007.06 1007.03 1006.97 1006.81 1007.05 1007.18 1007.15 1007.03 1006.91 1006.82 1006.71 1006.70 1006.74 1006.78 1006.87 1007.02 1007.18 1007.44 1007.79 1008.06 1008.24 1008.74 1009.30 1009.50 1009.71 1009.87 1009.86 1009.83 1009.69 1009.60 1009.64 1009.77 1009.76 1009.38
1007.01 1006.93 1006.83 1006.67 1006.56 1006.44 1006.35 1006.29 1006.15 1006.30 1006.41 1006.34 1006.25 1006.18 1006.06 1006.08 1006.08 1006.20 1006.35 1006.49 1006.69 1007.02 1007.37 1007.80 1008.16 1008.63 1008.98 1009.25 1009.55 1009.76 1009.85 1009.89 1009.70 1009.42 1009.08 1008.76 1008.61 1008.48
Thickness
5569 5569 5568 5567 5565 5562 5561 5559 5559 5563 5562 5568 5572 5574 5573 5572 5571 5571 5571 5570 5570 5569 5570 5570 5570 5571 5573 5573 5574 5576 5579 5581 5582 5582 5582 5582 5583 5583
5565 5563 5563 5563 5562 5560 5558 5556 5554 5554 5557 5556 5560 5561 5562 5565 5564 5563 5564 5564 5563 5563 5562 5563 5563 5563 5563 5565 5565 5567 5570 5572 5575 5575 5574 5575 5574 5574
5562 5560 5559 5558 5557 5555 5555 5553 5551 5550 5554 5553 5552 5553 5554 5556 5556 5556 5556 5556 5555 5554 5554 5554 5554 5555 5556 5556 5558 5559 5561 5562 5562 5563 5564 5565 5565 5565
5558 5556 5555 5553 5553 5551 5549 5548 5547 5543 5541 5545 5543 5544 5546 5547 5549 5548 5549 5548 5547 5546 5545 5544 5544 5545 5546 5547 5547 5548 5550 5551 5552 5552 5552 5552 5552 5552
5553 5552 5551 5548 5546 5545 5544 5542 5540 5539 5536 5535 5535 5535 5536 5537 5537 5538 5539 5539 5539 5538 5537 5535 5535 5535 5534 5534 5534 5535 5536 5538 5539 5539 5540 5540 5539 5539
5544 5544 5543 5542 5540 5537 5536 5536 5534 5532 5528 5527 5526 5523 5523 5526 5527 5525 5524 5528 5528 5529 5528 5526 5524 5524 5523 5522 5522 5522 5522 5523 5524 5524 5525 5525 5524 5525
5538 5537 5535 5534 5533 5532 5529 5527 5526 5524 5521 5517 5515 5515 5513 5512 5513 5516 5514 5514 5517 5519 5517 5516 5516 5514 5512 5511 5510 5510 5509 5509 5508 5507 5507 5508 5507 5507
5526 5530 5530 5528 5524 5522 5522 5521 5517 5515 5512 5507 5507 5505 5505 5505 5505 5504 5502 5500 5500 5506 5504 5503 5505 5502 5502 5501 5499 5497 5496 5495 5493 5491 5490 5490 5490 5491
5511 5516 5518 5518 5517 5514 5511 5509 5508 5506 5505 5501 5499 5497 5497 5497 5496 5493 5490 5488 5488 5491 5489 5489 5492 5489 5491 5490 5488 5486 5483 5482 5479 5476 5475 5475 5474 5474
5495 5501 5504 5505 5505 5503 5501 5497 5496 5494 5493 5492 5492 5492 5489 5487 5485 5482 5480 5477 5477 5478 5476 5472 5476 5475 5478 5476 5474 5471 5467 5465 5463 5459 5458 5457 5456 5456
5484 5481 5486 5490 5489 5489 5488 5486 5483 5481 5483 5483 5480 5480 5479 5477 5474 5469 5463 5459 5459 5462 5462 5461 5460 5460 5459 5458 5456 5454 5451 5447 5442 5439 5437 5436 5435 5435
5461 5465 5464 5470 5473 5470 5467 5467 5467 5468 5469 5469 5468 5466 5465 5461 5460 5458 5452 5447 5442 5442 5448 5443 5440 5438 5434 5437 5437 5434 5431 5428 5423 5420 5417 5416 5414 5414
5440 5442 5443 5449 5450 5452 5450 5448 5450 5454 5455 5453 5452 5450 5448 5446 5446 5446 5442 5438 5430 5430 5434 5428 5421 5415 5412 5413 5413 5412 5410 5407 5404 5403 5402 5400 5398 5398
5421 5423 5422 5424 5431 5432 5433 5433 5435 5439 5438 5437 5436 5436 5434 5433 5432 5430 5430 5426 5424 5421 5418 5413 5405 5400 5393 5388 5392 5393 5391 5388 5386 5385 5385 5384 5383 5384
5405 5408 5405 5405 5413 5419 5417 5418 5418 5418 5420 5420 5420 5421 5422 5422 5424 5419 5416 5412 5408 5405 5402 5397 5391 5386 5380 5373 5374 5372 5369 5370 5371 5370 5370 5368 5368 5369
5384 5391 5391 5390 5394 5401 5404 5403 5403 5401 5403 5405 5407 5407 5408 5406 5407 5405 5402 5396 5390 5383 5383 5380 5376 5372 5365 5362 5358 5353 5354 5351 5357 5357 5358 5357 5357 5359
5371 5369 5375 5374 5374 5379 5385 5387 5384 5385 5385 5389 5391 5394 5395 5394 5392 5391 5388 5383 5377 5366 5369 5366 5362 5359 5356 5349 5343 5347 5348 5347 5349 5348 5347 5347 5350 5351
5359 5361 5359 5364 5365 5364 5366 5370 5372 5374 5375 5375 5377 5380 5382 5381 5379 5377 5375 5371 5367 5362 5359 5355 5352 5347 5343 5343 5342 5342 5340 5341 5341 5340 5338 5337 5342 5346
5344 5348 5349 5351 5354 5354 5354 5356 5360 5360 5363 5364 5365 5366 5368 5369 5369 5366 5363 5361 5358 5355 5354 5352 5346 5340 5334 5333 5339 5338 5335 5335 5333 5331 5331 5332 5335 5341
5330 5334 5337 5340 5342 5344 5343 5344 5347 5349 5350 5352 5355 5356 5357 5358 5357 5357 5356 5353 5352 5349 5348 5346 5341 5338 5336 5332 5329 5328 5330 5326 5326 5325 5324 5328 5332 5338
5309 5315 5321 5326 5328 5331 5334 5334 5335 5338 5340 5342 5346 5348 5347 5348 5349 5349 5350 5350 5349 5343 5342 5341 5340 5336 5328 5323 5320 5319 5321 5322 5322 5320 5319 5319 5324 5331
5292 5297 5304 5308 5312 5315 5319 5324 5325 5327 5330 5334 5337 5338 5340 5341 5342 5344 5345 5346 5345 5344 5340 5334 5331 5325 5316 5317 5311 5312 5313 5314 5316 5318 5318 5318 5316 5318
5277 5282 5286 5293 5299 5303 5307 5311 5317 5319 5321 5325 5328 5331 5333 5335 5338 5339 5340 5340 5340 5337 5334 5329 5323 5313 5310 5309 5306 5304 5303 5305 5308 5312 5316 5319 5321 5324